Wetterdaten: Woche 27.11.17 - 03.12.17 (KW48)
Datum Zeit Temp. A. Feuchte A. Luftdruck Regen Wind Richtung Taupunkt Windchill Windben
27.11.2017 00:00 -0,1 C 92 % 1028,1 hPa 0,0 l/m 4,0 km/h (1 Bft) O-NO -1,2 C -0,1 C 9,2 km/h (2 Bft)
27.11.2017 01:00 -0,4 C 93 % 1028,1 hPa 0,0 l/m 2,0 km/h (1 Bft) O-NO -1,5 C -0,4 C 7,2 km/h (2 Bft)
27.11.2017 02:00 -0,3 C 94 % 1028,3 hPa 0,0 l/m 4,0 km/h (1 Bft) O-NO -1,2 C -0,3 C 10,9 km/h (2 Bft)
27.11.2017 03:00 -0,3 C 95 % 1028,1 hPa 0,0 l/m 3,9 km/h (1 Bft) O-NO -1,0 C -0,3 C 10,3 km/h (2 Bft)
27.11.2017 04:00 -0,3 C 94 % 1027,8 hPa 0,0 l/m 3,3 km/h (1 Bft) O -1,1 C -0,3 C 9,2 km/h (2 Bft)
27.11.2017 05:00 -0,2 C 94 % 1027,3 hPa 0,0 l/m 3,8 km/h (1 Bft) O-NO -1,0 C -0,2 C 10,6 km/h (2 Bft)
27.11.2017 06:00 -0,1 C 94 % 1027,2 hPa 0,0 l/m 4,6 km/h (1 Bft) NO -1,0 C -0,1 C 13,1 km/h (3 Bft)
27.11.2017 07:00 0,1 C 94 % 1027,0 hPa 0,0 l/m 4,4 km/h (1 Bft) NO -0,8 C 0,1 C 11,6 km/h (2 Bft)
27.11.2017 08:00 0,2 C 94 % 1027,0 hPa 0,0 l/m 4,2 km/h (1 Bft) NO -0,6 C 0,2 C 11,4 km/h (2 Bft)
27.11.2017 09:00 0,5 C 94 % 1026,9 hPa 0,3 l/m 5,2 km/h (1 Bft) NO -0,4 C 0,3 C 13,4 km/h (3 Bft)
27.11.2017 10:00 1,4 C 92 % 1026,3 hPa 0,0 l/m 6,4 km/h (2 Bft) N-NO 0,2 C 1,0 C 15,2 km/h (3 Bft)
27.11.2017 11:00 2,1 C 89 % 1025,3 hPa 2,0 l/m 6,5 km/h (2 Bft) NO 0,5 C 1,6 C 14,4 km/h (3 Bft)
27.11.2017 12:00 2,4 C 89 % 1024,6 hPa 1,3 l/m 6,4 km/h (2 Bft) N-NO 0,7 C 2,0 C 15,1 km/h (3 Bft)
27.11.2017 13:00 2,6 C 88 % 1023,7 hPa 1,0 l/m 7,6 km/h (2 Bft) NO 0,8 C 1,5 C 18,8 km/h (3 Bft)
27.11.2017 14:00 2,5 C 90 % 1022,9 hPa 0,5 l/m 6,5 km/h (2 Bft) O 1,0 C 2,0 C 15,4 km/h (3 Bft)
27.11.2017 15:00 2,6 C 90 % 1022,2 hPa 0,0 l/m 7,6 km/h (2 Bft) O-NO 1,1 C 1,4 C 18,2 km/h (3 Bft)
27.11.2017 16:00 2,1 C 92 % 1021,6 hPa 0,3 l/m 7,1 km/h (2 Bft) NO 0,9 C 1,2 C 18,0 km/h (3 Bft)
27.11.2017 17:00 1,9 C 93 % 1020,9 hPa 0,5 l/m 6,7 km/h (2 Bft) O-NO 0,9 C 1,4 C 17,4 km/h (3 Bft)
27.11.2017 18:00 1,8 C 94 % 1020,1 hPa 0,8 l/m 6,8 km/h (2 Bft) O-NO 0,9 C 1,3 C 15,4 km/h (3 Bft)
27.11.2017 19:00 1,7 C 94 % 1019,2 hPa 0,8 l/m 7,6 km/h (2 Bft) O-NO 0,9 C 0,6 C 18,5 km/h (3 Bft)
27.11.2017 20:00 2,0 C 94 % 1018,4 hPa 0,3 l/m 7,9 km/h (2 Bft) O-NO 1,1 C 0,6 C 18,9 km/h (3 Bft)
27.11.2017 21:00 2,2 C 93 % 1017,8 hPa 0,8 l/m 7,4 km/h (2 Bft) O-NO 1,2 C 1,1 C 16,6 km/h (3 Bft)
27.11.2017 22:00 1,8 C 95 % 1017,3 hPa 1,3 l/m 8,3 km/h (2 Bft) O-NO 1,0 C -0,1 C 18,0 km/h (3 Bft)
27.11.2017 23:00 1,6 C 95 % 1016,5 hPa 1,8 l/m 6,6 km/h (2 Bft) O-NO 0,9 C 1,0 C 14,1 km/h (3 Bft)
28.11.2017 00:00 1,6 C 95 % 1015,9 hPa 1,5 l/m 7,0 km/h (2 Bft) O-NO 0,9 C 0,8 C 14,5 km/h (3 Bft)
28.11.2017 01:00 1,8 C 95 % 1014,8 hPa 1,8 l/m 7,8 km/h (2 Bft) N-NO 1,1 C 0,4 C 18,0 km/h (3 Bft)
28.11.2017 02:00 2,2 C 94 % 1013,7 hPa 0,0 l/m 7,8 km/h (2 Bft) O-NO 1,3 C 0,9 C 18,4 km/h (3 Bft)
28.11.2017 03:00 2,5 C 92 % 1012,6 hPa 0,3 l/m 8,2 km/h (2 Bft) NO 1,3 C 0,8 C 18,5 km/h (3 Bft)
28.11.2017 04:00 2,7 C 90 % 1011,7 hPa 0,0 l/m 9,3 km/h (2 Bft) O-NO 1,1 C 0,1 C 21,3 km/h (4 Bft)
28.11.2017 05:00 2,7 C 90 % 1011,0 hPa 0,3 l/m 9,3 km/h (2 Bft) O-NO 1,2 C 0,1 C 21,0 km/h (4 Bft)
28.11.2017 06:00 2,4 C 93 % 1010,7 hPa 0,8 l/m 8,5 km/h (2 Bft) O-SO 1,3 C 0,5 C 21,0 km/h (4 Bft)
28.11.2017 07:00 2,3 C 94 % 1010,5 hPa 1,3 l/m 7,6 km/h (2 Bft) NO 1,4 C 1,0 C 18,4 km/h (3 Bft)
28.11.2017 08:00 2,3 C 94 % 1010,5 hPa 1,3 l/m 9,3 km/h (2 Bft) NO 1,4 C -0,4 C 22,8 km/h (4 Bft)
28.11.2017 09:00 2,0 C 94 % 1010,6 hPa 2,0 l/m 8,8 km/h (2 Bft) NO 1,2 C -0,2 C 20,5 km/h (4 Bft)
28.11.2017 10:00 1,7 C 95 % 1010,6 hPa 2,8 l/m 8,4 km/h (2 Bft) O-NO 1,0 C -0,2 C 19,7 km/h (3 Bft)
28.11.2017 11:00 1,5 C 95 % 1010,2 hPa 2,3 l/m 6,9 km/h (2 Bft) O-NO 0,8 C 0,6 C 15,4 km/h (3 Bft)
28.11.2017 12:00 1,4 C 96 % 1009,8 hPa 1,8 l/m 6,4 km/h (2 Bft) O-NO 0,8 C 0,7 C 14,8 km/h (3 Bft)
28.11.2017 13:00 1,4 C 96 % 1009,2 hPa 0,8 l/m 4,5 km/h (1 Bft) NO 0,8 C 1,4 C 11,8 km/h (2 Bft)
28.11.2017 14:00 1,3 C 96 % 1008,8 hPa 0,8 l/m 3,6 km/h (1 Bft) NO 0,7 C 1,3 C 10,5 km/h (2 Bft)
28.11.2017 15:00 1,2 C 96 % 1008,4 hPa 0,5 l/m 2,5 km/h (1 Bft) O-NO 0,6 C 1,2 C 6,8 km/h (2 Bft)
28.11.2017 16:00 0,9 C 96 % 1008,3 hPa 0,5 l/m 2,3 km/h (1 Bft) O-NO 0,3 C 0,9 C 5,5 km/h (2 Bft)
28.11.2017 17:00 0,6 C 96 % 1008,0 hPa 0,3 l/m 1,9 km/h (1 Bft) O-NO 0,1 C 0,6 C 5,7 km/h (2 Bft)
28.11.2017 18:00 0,4 C 96 % 1007,7 hPa 0,3 l/m 2,7 km/h (1 Bft) O-NO -0,1 C 0,4 C 7,4 km/h (2 Bft)
28.11.2017 19:00 0,4 C 96 % 1007,4 hPa 0,3 l/m 3,3 km/h (1 Bft) O-NO -0,2 C 0,4 C 8,2 km/h (2 Bft)
28.11.2017 20:00 0,4 C 96 % 1007,3 hPa 0,0 l/m 3,1 km/h (1 Bft) O-NO -0,2 C 0,4 C 7,3 km/h (2 Bft)
28.11.2017 21:00 0,3 C 96 % 1007,1 hPa 0,3 l/m 2,2 km/h (1 Bft) O-NO -0,3 C 0,3 C 6,3 km/h (2 Bft)
28.11.2017 22:00 0,4 C 96 % 1007,2 hPa 0,0 l/m 3,0 km/h (1 Bft) O -0,2 C 0,4 C 8,2 km/h (2 Bft)
28.11.2017 23:00 0,3 C 96 % 1007,1 hPa 0,0 l/m 2,7 km/h (1 Bft) O-NO -0,3 C 0,3 C 6,1 km/h (2 Bft)
29.11.2017 00:00 0,3 C 96 % 1007,0 hPa 0,0 l/m 1,7 km/h (1 Bft) O-NO -0,2 C 0,3 C 3,6 km/h (1 Bft)
29.11.2017 01:00 0,4 C 97 % 1006,8 hPa 0,0 l/m 1,9 km/h (1 Bft) NO -0,1 C 0,4 C 3,6 km/h (1 Bft)
29.11.2017 02:00 0,3 C 96 % 1006,6 hPa 0,0 l/m 2,0 km/h (1 Bft) NO -0,3 C 0,3 C 4,1 km/h (1 Bft)
29.11.2017 03:00 0,2 C 96 % 1006,2 hPa 0,0 l/m 1,8 km/h (1 Bft) O-NO -0,5 C 0,2 C 3,5 km/h (1 Bft)
29.11.2017 04:00 -0,3 C 96 % 1006,1 hPa 0,0 l/m 0,1 km/h (0 Bft) N -0,8 C -0,3 C 0,4 km/h (0 Bft)
29.11.2017 05:00 -0,2 C 97 % 1006,0 hPa 0,0 l/m 0,2 km/h (0 Bft) N -0,7 C -0,2 C 0,3 km/h (0 Bft)
29.11.2017 06:00 -0,1 C 96 % 1005,7 hPa 0,0 l/m 2,1 km/h (1 Bft) O-NO -0,6 C -0,1 C 3,9 km/h (1 Bft)
29.11.2017 07:00 -0,1 C 96 % 1005,8 hPa 0,0 l/m 2,0 km/h (1 Bft) O-NO -0,7 C -0,1 C 4,2 km/h (1 Bft)
29.11.2017 08:00 0,1 C 96 % 1006,1 hPa 0,0 l/m 1,6 km/h (1 Bft) O-NO -0,5 C 0,1 C 5,1 km/h (1 Bft)
29.11.2017 09:00 0,6 C 95 % 1006,3 hPa 0,8 l/m 0,4 km/h (0 Bft) NO -0,2 C 0,6 C 1,7 km/h (1 Bft)
29.11.2017 10:00 0,6 C 96 % 1006,5 hPa 0,8 l/m 0,8 km/h (0 Bft) NO -0,1 C 0,6 C 3,1 km/h (1 Bft)
29.11.2017 11:00 1,2 C 96 % 1006,3 hPa 0,5 l/m 1,5 km/h (1 Bft) O-NO 0,6 C 1,2 C 4,2 km/h (1 Bft)
29.11.2017 12:00 1,5 C 94 % 1006,3 hPa 0,0 l/m 2,1 km/h (1 Bft) O 0,6 C 1,5 C 4,6 km/h (1 Bft)
29.11.2017 13:00 1,2 C 94 % 1006,1 hPa 0,0 l/m 1,4 km/h (1 Bft) O-NO 0,4 C 1,2 C 4,1 km/h (1 Bft)
29.11.2017 14:00 1,3 C 93 % 1006,0 hPa 0,0 l/m 1,5 km/h (1 Bft) O-NO 0,3 C 1,3 C 4,7 km/h (1 Bft)
29.11.2017 15:00 1,1 C 93 % 1006,2 hPa 0,0 l/m 1,0 km/h (0 Bft) O-NO 0,1 C 1,1 C 3,7 km/h (1 Bft)
29.11.2017 16:00 0,6 C 93 % 1006,3 hPa 0,0 l/m 0,2 km/h (0 Bft) SO -0,4 C 0,6 C 1,6 km/h (1 Bft)
29.11.2017 17:00 -0,3 C 95 % 1006,5 hPa 0,0 l/m 0,0 km/h (0 Bft) SO -1,0 C -0,3 C 0,3 km/h (0 Bft)
29.11.2017 18:00 -0,9 C 96 % 1006,6 hPa 0,0 l/m 0,0 km/h (0 Bft) SO -1,5 C -0,9 C 0,1 km/h (0 Bft)
29.11.2017 19:00 -1,0 C 97 % 1006,9 hPa 0,0 l/m 0,0 km/h (0 Bft) SO -1,4 C -1,0 C 0,0 km/h (0 Bft)
29.11.2017 20:00 -0,9 C 97 % 1007,0 hPa 0,0 l/m 0,1 km/h (0 Bft) SO -1,4 C -0,9 C 1,2 km/h (1 Bft)
29.11.2017 21:00 -1,4 C 96 % 1007,2 hPa 0,0 l/m 0,1 km/h (0 Bft) SO -2,1 C -1,4 C 0,8 km/h (0 Bft)
29.11.2017 22:00 -2,0 C 96 % 1007,2 hPa 0,0 l/m 0,0 km/h (0 Bft) SO -2,6 C -2,0 C 0,5 km/h (0 Bft)
29.11.2017 23:00 -1,5 C 96 % 1007,1 hPa 0,0 l/m 1,1 km/h (1 Bft) N -2,0 C -1,5 C 2,8 km/h (1 Bft)
30.11.2017 00:00 -1,2 C 96 % 1006,7 hPa 0,0 l/m 1,6 km/h (1 Bft) N-NO -1,8 C -1,2 C 4,3 km/h (1 Bft)
30.11.2017 01:00 -1,1 C 95 % 1006,4 hPa 0,0 l/m 3,3 km/h (1 Bft) O -1,8 C -1,1 C 9,1 km/h (2 Bft)
30.11.2017 02:00 -1,1 C 95 % 1006,4 hPa 0,0 l/m 3,3 km/h (1 Bft) N-NO -1,8 C -1,1 C 8,4 km/h (2 Bft)
30.11.2017 03:00 -1,1 C 95 % 1006,1 hPa 0,0 l/m 4,4 km/h (1 Bft) NO -1,8 C -1,1 C 11,1 km/h (2 Bft)
30.11.2017 04:00 -1,1 C 96 % 1005,8 hPa 0,0 l/m 2,7 km/h (1 Bft) NO -1,7 C -1,1 C 7,5 km/h (2 Bft)
30.11.2017 05:00 -1,1 C 96 % 1005,8 hPa 0,0 l/m 2,9 km/h (1 Bft) O -1,6 C -1,1 C 8,6 km/h (2 Bft)
30.11.2017 06:00 -1,1 C 96 % 1005,9 hPa 0,0 l/m 3,2 km/h (1 Bft) O-NO -1,7 C -1,1 C 10,1 km/h (2 Bft)
30.11.2017 07:00 -1,1 C 96 % 1006,0 hPa 0,0 l/m 3,2 km/h (1 Bft) NO -1,7 C -1,1 C 9,3 km/h (2 Bft)
30.11.2017 08:00 -1,1 C 96 % 1006,2 hPa 0,0 l/m 2,5 km/h (1 Bft) O-NO -1,7 C -1,1 C 7,0 km/h (2 Bft)
30.11.2017 09:00 -0,9 C 96 % 1006,4 hPa 0,0 l/m 2,3 km/h (1 Bft) NO -1,5 C -0,9 C 7,0 km/h (2 Bft)
30.11.2017 10:00 -0,6 C 96 % 1006,7 hPa 0,0 l/m 1,1 km/h (1 Bft) O-NO -1,1 C -0,6 C 4,8 km/h (1 Bft)
30.11.2017 11:00 -0,1 C 95 % 1006,7 hPa 0,0 l/m 1,0 km/h (0 Bft) O-NO -0,8 C -0,1 C 3,0 km/h (1 Bft)
30.11.2017 12:00 0,1 C 95 % 1006,6 hPa 0,0 l/m 2,9 km/h (1 Bft) O -0,6 C 0,1 C 7,3 km/h (2 Bft)
30.11.2017 13:00 0,3 C 94 % 1006,3 hPa 0,0 l/m 4,0 km/h (1 Bft) O-NO -0,6 C 0,3 C 10,9 km/h (2 Bft)
30.11.2017 14:00 0,1 C 93 % 1006,3 hPa 0,3 l/m 4,5 km/h (1 Bft) O-NO -0,8 C 0,1 C 12,1 km/h (2 Bft)
30.11.2017 15:00 0,1 C 93 % 1006,3 hPa 0,3 l/m 2,4 km/h (1 Bft) NO -0,9 C 0,1 C 7,5 km/h (2 Bft)
30.11.2017 16:00 -0,5 C 95 % 1006,5 hPa 0,3 l/m 4,1 km/h (1 Bft) NO -1,2 C -0,5 C 9,5 km/h (2 Bft)
30.11.2017 17:00 -0,7 C 96 % 1006,5 hPa 0,3 l/m 2,8 km/h (1 Bft) O -1,3 C -0,7 C 7,0 km/h (2 Bft)
30.11.2017 18:00 -0,9 C 96 % 1007,0 hPa 0,3 l/m 2,2 km/h (1 Bft) O-NO -1,4 C -0,9 C 6,6 km/h (2 Bft)
30.11.2017 19:00 -1,4 C 95 % 1007,3 hPa 0,0 l/m 0,2 km/h (0 Bft) NO -2,1 C -1,4 C 1,9 km/h (1 Bft)
30.11.2017 20:00 -1,8 C 96 % 1007,6 hPa 0,0 l/m 0,0 km/h (0 Bft) NO -2,5 C -1,8 C 0,4 km/h (0 Bft)
30.11.2017 21:00 -1,6 C 96 % 1007,8 hPa 0,0 l/m 0,6 km/h (0 Bft) NO -2,2 C -1,6 C 2,1 km/h (1 Bft)
30.11.2017 22:00 -2,8 C 95 % 1007,7 hPa 0,0 l/m 0,0 km/h (0 Bft) NO -3,5 C -2,8 C 0,0 km/h (0 Bft)
30.11.2017 23:00 -3,7 C 96 % 1007,5 hPa 0,0 l/m 0,0 km/h (0 Bft) NO -4,3 C -3,7 C 0,0 km/h (0 Bft)
01.12.2017 00:00 -3,1 C 97 % 1007,5 hPa 0,0 l/m 0,1 km/h (0 Bft) O-NO -3,6 C -3,1 C 0,6 km/h (0 Bft)
01.12.2017 01:00 -2,7 C 96 % 1007,3 hPa 0,0 l/m 0,0 km/h (0 Bft) O-NO -3,2 C -2,7 C 0,0 km/h (0 Bft)
01.12.2017 02:00 -2,5 C 97 % 1007,6 hPa 0,0 l/m 0,0 km/h (0 Bft) O-NO -3,0 C -2,5 C 0,0 km/h (0 Bft)
01.12.2017 03:00 -2,2 C 97 % 1008,0 hPa 0,0 l/m 1,0 km/h (0 Bft) O-NO -2,6 C -2,2 C 3,7 km/h (1 Bft)
01.12.2017 04:00 -2,2 C 95 % 1008,5 hPa 0,0 l/m 0,5 km/h (0 Bft) O-NO -2,9 C -2,2 C 2,5 km/h (1 Bft)
01.12.2017 05:00 -2,4 C 95 % 1009,0 hPa 0,0 l/m 0,6 km/h (0 Bft) O-NO -3,0 C -2,4 C 2,8 km/h (1 Bft)
01.12.2017 06:00 -3,2 C 94 % 1009,7 hPa 0,0 l/m 0,0 km/h (0 Bft) O-NO -4,0 C -3,2 C 0,1 km/h (0 Bft)
01.12.2017 07:00 -4,8 C 94 % 1010,4 hPa 0,0 l/m 0,1 km/h (0 Bft) S-SO -5,6 C -4,8 C 0,5 km/h (0 Bft)
01.12.2017 08:00 -5,6 C 95 % 1011,3 hPa 0,0 l/m 0,0 km/h (0 Bft) S-SO -6,3 C -5,6 C 0,1 km/h (0 Bft)
01.12.2017 09:00 -4,3 C 95 % 1012,1 hPa 0,0 l/m 0,2 km/h (0 Bft) S-SO -4,9 C -4,3 C 0,9 km/h (0 Bft)
01.12.2017 10:00 -1,2 C 91 % 1012,8 hPa 1,0 l/m 0,3 km/h (0 Bft) N -2,6 C -1,2 C 2,1 km/h (1 Bft)
01.12.2017 11:00 0,1 C 84 % 1013,0 hPa 1,5 l/m 1,1 km/h (1 Bft) W-NW -2,2 C 0,1 C 3,4 km/h (1 Bft)
01.12.2017 12:00 0,9 C 82 % 1013,0 hPa 1,5 l/m 1,2 km/h (1 Bft) W-NW -1,7 C 0,9 C 3,3 km/h (1 Bft)
01.12.2017 13:00 0,7 C 81 % 1013,3 hPa 1,3 l/m 1,3 km/h (1 Bft) NW -2,2 C 0,7 C 4,5 km/h (1 Bft)
01.12.2017 14:00 0,3 C 81 % 1013,7 hPa 0,5 l/m 1,8 km/h (1 Bft) NW -2,5 C 0,3 C 5,3 km/h (1 Bft)
01.12.2017 15:00 -1,2 C 86 % 1014,5 hPa 0,0 l/m 0,7 km/h (0 Bft) S-SW -3,2 C -1,2 C 3,3 km/h (1 Bft)
01.12.2017 16:00 -1,8 C 90 % 1015,6 hPa 0,0 l/m 0,2 km/h (0 Bft) S-SW -3,2 C -1,8 C 1,2 km/h (1 Bft)
01.12.2017 17:00 -2,3 C 94 % 1016,3 hPa 0,0 l/m 0,0 km/h (0 Bft) S-SW -3,2 C -2,3 C 0,3 km/h (0 Bft)
01.12.2017 18:00 -3,1 C 93 % 1016,8 hPa 0,0 l/m 0,0 km/h (0 Bft) S-SW -4,0 C -3,1 C 0,1 km/h (0 Bft)
01.12.2017 19:00 -4,4 C 95 % 1017,4 hPa 0,0 l/m 0,0 km/h (0 Bft) S-SW -5,2 C -4,4 C 0,1 km/h (0 Bft)
01.12.2017 20:00 -4,8 C 95 % 1018,0 hPa 0,0 l/m 0,0 km/h (0 Bft) S-SW -5,5 C -4,8 C 0,0 km/h (0 Bft)
01.12.2017 21:00 -5,5 C 95 % 1018,6 hPa 0,0 l/m 0,0 km/h (0 Bft) S-SW -6,1 C -5,5 C 0,4 km/h (0 Bft)
01.12.2017 22:00 -4,9 C 96 % 1019,2 hPa 0,0 l/m 0,3 km/h (0 Bft) S-SW -5,4 C -4,9 C 1,9 km/h (1 Bft)
01.12.2017 23:00 -3,4 C 96 % 1019,5 hPa 0,0 l/m 0,5 km/h (0 Bft) N -3,9 C -3,4 C 2,6 km/h (1 Bft)
02.12.2017 00:00 -3,1 C 96 % 1019,8 hPa 0,0 l/m 0,3 km/h (0 Bft) NW -3,7 C -3,1 C 2,2 km/h (1 Bft)
02.12.2017 01:00 -2,7 C 96 % 1020,2 hPa 0,0 l/m 1,7 km/h (1 Bft) W-NW -3,3 C -2,7 C 5,7 km/h (2 Bft)
02.12.2017 02:00 -2,5 C 96 % 1020,5 hPa 0,0 l/m 1,4 km/h (1 Bft) S-SW -3,0 C -2,5 C 5,3 km/h (1 Bft)
02.12.2017 03:00 -2,2 C 95 % 1020,9 hPa 0,0 l/m 1,8 km/h (1 Bft) W-NW -2,9 C -2,2 C 5,6 km/h (2 Bft)
02.12.2017 04:00 -2,4 C 94 % 1021,4 hPa 0,3 l/m 3,4 km/h (1 Bft) W-NW -3,2 C -2,4 C 10,2 km/h (2 Bft)
02.12.2017 05:00 -2,7 C 94 % 1021,9 hPa 0,0 l/m 2,5 km/h (1 Bft) SW -3,6 C -2,7 C 8,2 km/h (2 Bft)
02.12.2017 06:00 -2,9 C 94 % 1022,4 hPa 0,0 l/m 2,3 km/h (1 Bft) SW -3,8 C -2,9 C 7,2 km/h (2 Bft)
02.12.2017 07:00 -3,2 C 93 % 1023,0 hPa 0,0 l/m 2,7 km/h (1 Bft) W -4,2 C -3,2 C 8,9 km/h (2 Bft)
02.12.2017 08:00 -3,5 C 94 % 1023,3 hPa 0,0 l/m 2,9 km/h (1 Bft) W -4,3 C -3,5 C 9,3 km/h (2 Bft)
02.12.2017 09:00 -3,4 C 95 % 1023,7 hPa 0,0 l/m 2,8 km/h (1 Bft) SW -4,1 C -3,4 C 9,9 km/h (2 Bft)
02.12.2017 10:00 -3,6 C 95 % 1024,3 hPa 0,0 l/m 3,3 km/h (1 Bft) W -4,2 C -3,6 C 11,3 km/h (2 Bft)
02.12.2017 11:00 -3,0 C 93 % 1024,2 hPa 0,0 l/m 2,6 km/h (1 Bft) W -4,0 C -3,0 C 7,6 km/h (2 Bft)
02.12.2017 12:00 -2,5 C 91 % 1024,0 hPa 0,0 l/m 2,4 km/h (1 Bft) NW -3,7 C -2,5 C 7,0 km/h (2 Bft)
02.12.2017 13:00 -2,2 C 89 % 1024,1 hPa 0,0 l/m 3,3 km/h (1 Bft) W-NW -3,7 C -2,2 C 9,8 km/h (2 Bft)
02.12.2017 14:00 -2,2 C 89 % 1024,0 hPa 0,0 l/m 2,6 km/h (1 Bft) NW -3,7 C -2,2 C 8,6 km/h (2 Bft)
02.12.2017 15:00 -2,2 C 89 % 1024,4 hPa 0,0 l/m 2,4 km/h (1 Bft) W-NW -3,7 C -2,2 C 8,6 km/h (2 Bft)
02.12.2017 16:00 -2,3 C 90 % 1024,8 hPa 0,0 l/m 1,7 km/h (1 Bft) NW -3,8 C -2,3 C 6,3 km/h (2 Bft)
02.12.2017 17:00 -2,6 C 90 % 1024,9 hPa 0,0 l/m 1,8 km/h (1 Bft) W -3,9 C -2,6 C 6,0 km/h (2 Bft)
02.12.2017 18:00 -2,5 C 90 % 1025,1 hPa 0,0 l/m 2,5 km/h (1 Bft) W -3,9 C -2,5 C 7,8 km/h (2 Bft)
02.12.2017 19:00 -2,6 C 89 % 1025,3 hPa 0,0 l/m 3,0 km/h (1 Bft) SW -4,2 C -2,6 C 9,1 km/h (2 Bft)
02.12.2017 20:00 -2,7 C 88 % 1025,7 hPa 0,0 l/m 2,6 km/h (1 Bft) SW -4,4 C -2,7 C 9,0 km/h (2 Bft)
02.12.2017 21:00 -2,9 C 88 % 1026,0 hPa 0,0 l/m 1,8 km/h (1 Bft) SW -4,7 C -2,9 C 7,6 km/h (2 Bft)
02.12.2017 22:00 -3,1 C 89 % 1026,0 hPa 0,0 l/m 1,6 km/h (1 Bft) W-NW -4,7 C -3,1 C 5,3 km/h (1 Bft)
02.12.2017 23:00 -3,2 C 88 % 1025,9 hPa 0,0 l/m 2,4 km/h (1 Bft) S-SW -4,8 C -3,2 C 6,6 km/h (2 Bft)
03.12.2017 00:00 -3,3 C 87 % 1025,9 hPa 0,0 l/m 2,1 km/h (1 Bft) W -5,1 C -3,3 C 4,8 km/h (1 Bft)
03.12.2017 01:00 -3,6 C 88 % 1025,8 hPa 0,0 l/m 1,0 km/h (0 Bft) W-NW -5,3 C -3,6 C 2,7 km/h (1 Bft)
03.12.2017 02:00 -3,7 C 88 % 1026,1 hPa 0,0 l/m 0,8 km/h (0 Bft) N -5,4 C -3,7 C 1,9 km/h (1 Bft)
03.12.2017 03:00 -3,8 C 88 % 1026,1 hPa 0,0 l/m 0,3 km/h (0 Bft) N -5,5 C -3,8 C 1,0 km/h (0 Bft)
03.12.2017 04:00 -3,9 C 87 % 1026,3 hPa 0,0 l/m 0,4 km/h (0 Bft) N -5,7 C -3,9 C 1,2 km/h (1 Bft)
03.12.2017 05:00 -4,0 C 86 % 1026,3 hPa 0,0 l/m 0,2 km/h (0 Bft) N -6,1 C -4,0 C 0,8 km/h (0 Bft)
03.12.2017 06:00 -4,1 C 87 % 1026,7 hPa 0,0 l/m 0,0 km/h (0 Bft) N -6,0 C -4,1 C 0,0 km/h (0 Bft)
03.12.2017 07:00 -4,2 C 85 % 1026,9 hPa 0,0 l/m 0,6 km/h (0 Bft) O-NO -6,4 C -4,2 C 1,8 km/h (1 Bft)
03.12.2017 08:00 -4,3 C 86 % 1027,4 hPa 0,0 l/m 0,4 km/h (0 Bft) O-NO -6,2 C -4,3 C 1,4 km/h (1 Bft)
03.12.2017 09:00 -4,1 C 84 % 1027,7 hPa 0,0 l/m 1,9 km/h (1 Bft) O-NO -6,3 C -4,1 C 3,8 km/h (1 Bft)
03.12.2017 10:00 -3,7 C 83 % 1028,0 hPa 0,0 l/m 2,6 km/h (1 Bft) O -6,0 C -3,7 C 6,9 km/h (2 Bft)
03.12.2017 11:00 -3,6 C 84 % 1027,9 hPa 0,0 l/m 3,1 km/h (1 Bft) NO -5,9 C -3,6 C 7,0 km/h (2 Bft)
03.12.2017 12:00 -2,9 C 82 % 1027,6 hPa 0,0 l/m 3,3 km/h (1 Bft) N-NO -5,4 C -2,9 C 7,8 km/h (2 Bft)
03.12.2017 13:00 -2,5 C 83 % 1027,1 hPa 0,0 l/m 2,9 km/h (1 Bft) NO -5,0 C -2,5 C 8,3 km/h (2 Bft)
03.12.2017 14:00 -2,6 C 86 % 1027,0 hPa 0,0 l/m 2,1 km/h (1 Bft) O-NO -4,7 C -2,6 C 6,1 km/h (2 Bft)
03.12.2017 15:00 -2,8 C 88 % 1027,1 hPa 0,0 l/m 2,0 km/h (1 Bft) O-NO -4,5 C -2,8 C 6,3 km/h (2 Bft)
03.12.2017 16:00 -3,2 C 91 % 1027,1 hPa 0,0 l/m 3,2 km/h (1 Bft) O-NO -4,4 C -3,2 C 9,1 km/h (2 Bft)
03.12.2017 17:00 -3,4 C 92 % 1027,4 hPa 0,0 l/m 3,4 km/h (1 Bft) O-NO -4,5 C -3,4 C 9,9 km/h (2 Bft)
03.12.2017 18:00 -3,4 C 93 % 1027,8 hPa 0,0 l/m 3,2 km/h (1 Bft) O-NO -4,4 C -3,4 C 8,8 km/h (2 Bft)
03.12.2017 19:00 -3,3 C 93 % 1028,0 hPa 0,0 l/m 3,4 km/h (1 Bft) N-NO -4,3 C -3,3 C 8,8 km/h (2 Bft)
03.12.2017 20:00 -3,2 C 94 % 1027,9 hPa 0,0 l/m 4,3 km/h (1 Bft) NO -4,1 C -3,2 C 11,0 km/h (2 Bft)
03.12.2017 21:00 -3,0 C 94 % 1027,7 hPa 0,0 l/m 1,7 km/h (1 Bft) NO -3,9 C -3,0 C 6,0 km/h (2 Bft)
03.12.2017 22:00 -2,7 C 94 % 1028,1 hPa 0,0 l/m 2,2 km/h (1 Bft) N-NO -3,5 C -2,7 C 7,8 km/h (2 Bft)
03.12.2017 23:00 -2,5 C 93 % 1028,6 hPa 0,0 l/m 3,4 km/h (1 Bft) O-NO -3,4 C -2,6 C 8,0 km/h (2 Bft)
Min-Datum _ 01.12.17 01.12.17 30.11.17 - 03.12.17 - 01.12.17 01.12.17 03.12.17
_ Min-Zeit 08:30 13:30 06:35 - 12:05 - 08:30 08:30 09:00
Minimum _ -5,8 C 78 % 1005,7 hPa - 0,0 km/h (0 Bft) - -6,6 C -5,8 C 0,0 km/h (0 Bft)
Max-Datum _ 27.11.17 01.12.17 03.12.17 28.11.17 28.11.17 - 28.11.17 27.11.17 28.11.17
_ Max-Zeit 13:10 23:00 23:54 10:15 08:30 - 08:00 13:10 08:35
Maximum _ 3,1 C 97 % 1028,8 hPa 2,8 l/m 12,0 km/h
NO (2 Bft)
- 1,4 C 3,0 C 29,0 km/h
O-NO (5 Bft)
Durchschnitt _ -1,0 C 93 % 1015,8 hPa #40,4 l/m 2,8 km/h (1 Bft) O-NO -2,0 C -1,2 C 7,4 km/h (2 Bft)